sat.trackr.live / text

‹ back to catalog

NAVSTAR 43 (USA 132)

NORAD 24876 · 1997-035A

PAYLOAD ACTIVE UNKNOWN

§ Identity

Operator
Country
US
Launch date
1997-07-23
Launch site
AFETR
Launch vehicle
Mass (kg)
RCS (m²)
3.16

External: N2YO · Heavens-Above · Gunter

§ Orbital elements

Epoch: 2026-09-19T10:23:58.860960Z

Period
717.97 min
Inclination
56.0492°
Eccentricity
0.0106019
Mean motion
2.00564524 rev/d
Perigee alt
19,900.5 km
Apogee alt
20,463.7 km
Semi-major
26,560.3 km
B*
0.0000e+0
RAAN
94.8895°
Arg perigee
58.9668°
Mean anomaly
302.1365°
Rev number
21,384

§ Raw data

NAVSTAR 43 (USA 132)1 24876U 97035A   26262.43332015  .00000018  00000+0  00000+0 0  99972 24876  56.0492  94.8895 0106019  58.9668 302.1365  2.00564524213843

JSON: /api/v1/satellites/24876 · /tle

For live sub-satellite position, see the globe view (requires WebGL).

§ Visibility from observer

Set your observer location to see the next 7 days of passes ≥ 10°. The values pass through the URL so the page stays shareable.

No JS? Fill the form by hand. The geolocation button needs JavaScript.